| time (UTC) | temp F | wind direction | speed knots | gust knots | rain 1hr in | rain 24hr in | rain mn in | humidity % | barometer mb |
| 20260503184536 | 63 | 150 | 0.9 | 4.3 | 0.00 | 0.00 | 0.00 | 48 | 1015.5 |
| 20260503183050 | 63 | 0 | 0.0 | 4.3 | 0.00 | 0.00 | 0.00 | 41 | 1015.7 |
| 20260503181557 | 60 | 179 | 0.0 | 4.3 | 0.00 | 0.00 | 0.00 | 47 | 1015.9 |
| 20260503180048 | 60 | 63 | 0.9 | 5.2 | 0.00 | 0.00 | 0.00 | 44 | 1016.0 |
| 20260503174541 | 60 | 0 | 0.0 | 3.5 | 0.00 | 0.00 | 0.00 | 50 | 1016.2 |
| 20260503173040 | 58 | 134 | 0.9 | 3.5 | 0.00 | 0.00 | 0.00 | 47 | 1016.4 |
| 20260503171536 | 57 | 98 | 0.0 | 6.1 | 0.00 | 0.00 | 0.00 | 47 | 1016.5 |
| 20260503081542 | 30 | 0 | 0.0 | 0.0 | 0.00 | 0.01 | 0.00 | 93 | 1016.5 |
| 20260503071537 | 31 | 0 | 0.0 | 0.0 | 0.00 | 0.01 | 0.00 | 94 | 1016.3 |
| 20260503054541 | 31 | 0 | 0.0 | 0.0 | 0.00 | 0.01 | 0.00 | 93 | 1016.5 |
| 20260503053040 | 31 | 0 | 0.0 | 0.0 | 0.00 | 0.01 | 0.00 | 93 | 1016.5 |
| 20260503051539 | 32 | 0 | 0.0 | 0.0 | 0.00 | 0.01 | 0.00 | 92 | 1016.6 |
| 20260503050036 | 31 | 0 | 0.0 | 0.0 | 0.00 | 0.01 | 0.00 | 92 | 1016.6 |
| 20260503044552 | 31 | 0 | 0.0 | 0.0 | 0.00 | 0.01 | 0.00 | 92 | 1016.7 |
| 20260503043042 | 32 | 0 | 0.0 | 0.0 | 0.00 | 0.01 | 0.00 | 91 | 1016.8 |
| 20260503041552 | 32 | 0 | 0.0 | 0.0 | 0.00 | 0.01 | 0.00 | 91 | 1016.7 |
| 20260503040050 | 32 | 0 | 0.0 | 0.0 | 0.00 | 0.01 | 0.00 | 91 | 1016.7 |
| 20260503034539 | 33 | 0 | 0.0 | 0.0 | 0.00 | 0.01 | 0.01 | 90 | 1016.7 |
| 20260503033042 | 33 | 0 | 0.0 | 0.0 | 0.00 | 0.01 | 0.01 | 89 | 1016.8 |
| 20260503031538 | 34 | 0 | 0.0 | 0.0 | 0.00 | 0.01 | 0.01 | 87 | 1016.7 |
| 20260503030042 | 35 | 0 | 0.0 | 0.0 | 0.00 | 0.01 | 0.01 | 86 | 1016.8 |
| 20260503024541 | 36 | 0 | 0.0 | 0.0 | 0.00 | 0.01 | 0.01 | 85 | 1016.8 |
| 20260503023039 | 37 | 0 | 0.0 | 0.0 | 0.00 | 0.01 | 0.01 | 84 | 1016.9 |
| 20260503021545 | 38 | 0 | 0.0 | 0.0 | 0.00 | 0.01 | 0.01 | 81 | 1016.9 |
| 20260503020037 | 38 | 0 | 0.0 | 0.0 | 0.00 | 0.01 | 0.01 | 81 | 1016.9 |
| 20260503014539 | 39 | 0 | 0.0 | 0.0 | 0.00 | 0.01 | 0.01 | 81 | 1016.8 |
| 20260503013042 | 39 | 0 | 0.0 | 0.0 | 0.00 | 0.01 | 0.01 | 81 | 1016.9 |
| 20260503011540 | 39 | 0 | 0.0 | 0.0 | 0.00 | 0.01 | 0.01 | 82 | 1016.8 |
| 20260503010040 | 39 | 0 | 0.0 | 0.0 | 0.00 | 0.01 | 0.01 | 80 | 1016.7 |
| 20260503004538 | 40 | 0 | 0.0 | 0.0 | 0.00 | 0.01 | 0.01 | 80 | 1016.6 |
| 20260503003035 | 40 | 0 | 0.0 | 0.0 | 0.00 | 0.01 | 0.01 | 78 | 1016.4 |
| 20260503001538 | 40 | 0 | 0.0 | 0.0 | 0.00 | 0.01 | 0.01 | 78 | 1016.3 |
| 20260503000041 | 41 | 91 | 0.0 | 0.9 | 0.00 | 0.01 | 0.01 | 76 | 1016.2 |
| 20260502234548 | 41 | 0 | 0.0 | 1.7 | 0.00 | 0.03 | 0.01 | 75 | 1016.2 |
| 20260502233039 | 41 | 0 | 0.0 | 0.0 | 0.00 | 0.03 | 0.01 | 76 | 1016.2 |
| 20260502231542 | 42 | 0 | 0.0 | 0.9 | 0.00 | 0.03 | 0.01 | 76 | 1016.1 |
| 20260502230036 | 42 | 0 | 0.0 | 1.7 | 0.00 | 0.03 | 0.01 | 75 | 1016.1 |
| 20260502224535 | 42 | 0 | 0.0 | 0.9 | 0.00 | 0.06 | 0.01 | 77 | 1016.2 |
| 20260502223039 | 43 | 0 | 0.0 | 3.5 | 0.00 | 0.06 | 0.01 | 75 | 1016.2 |
| 20260502221542 | 43 | 264 | 0.0 | 0.9 | 0.00 | 0.06 | 0.01 | 78 | 1016.1 |
| 20260502220052 | 43 | 0 | 0.0 | 2.6 | 0.00 | 0.06 | 0.01 | 77 | 1016.0 |
| 20260502214536 | 43 | 215 | 0.0 | 2.6 | 0.00 | 0.06 | 0.01 | 75 | 1015.8 |
| 20260502213039 | 43 | 50 | 0.0 | 2.6 | 0.00 | 0.06 | 0.01 | 78 | 1015.8 |
| 20260502211544 | 43 | 226 | 0.0 | 3.5 | 0.00 | 0.06 | 0.01 | 78 | 1015.7 |
| 20260502210041 | 43 | 0 | 0.0 | 1.7 | 0.00 | 0.06 | 0.01 | 80 | 1015.7 |
| 20260502204538 | 42 | 256 | 0.0 | 1.7 | 0.00 | 0.13 | 0.01 | 81 | 1015.7 |
| 20260502203047 | 42 | 0 | 0.9 | 5.2 | 0.00 | 0.13 | 0.01 | 77 | 1015.8 |
| 20260502201540 | 43 | 50 | 0.0 | 1.7 | 0.00 | 0.13 | 0.01 | 80 | 1015.8 |
| 20260502200041 | 42 | 0 | 0.0 | 1.7 | 0.00 | 0.13 | 0.01 | 80 | 1015.7 |
| 20260502194548 | 42 | 0 | 0.0 | 0.0 | 0.00 | 0.16 | 0.01 | 83 | 1015.9 |
| 20260502193039 | 42 | 292 | 0.0 | 2.6 | 0.00 | 0.16 | 0.01 | 81 | 1015.9 |
| 20260502191542 | 42 | 65 | 0.0 | 3.5 | 0.00 | 0.16 | 0.01 | 82 | 1015.9 |
| 20260502190037 | 42 | 0 | 0.0 | 1.7 | 0.00 | 0.16 | 0.01 | 81 | 1016.2 |